Change the Weather History Date:

Thursday, April 11, 2013

  Actual Average Record
Temperature  
Mean Temperature 78 °F -  
Max Temperature 84 °F 79 °F 91 °F (1975)
Min Temperature 73 °F 60 °F 46 °F (1993)
Cooling Degree Days 12    
Growing Degree Days 28 (Base 50)    
Moisture  
Dew Point 70 °F    
Average Humidity 76    
Maximum Humidity 89    
Minimum Humidity 60    
Precipitation  
Precipitation 0.00 in - - ()
Sea Level Pressure  
Sea Level Pressure 29.97 in    
Wind  
Wind Speed 15 mph (SE)    
Max Wind Speed 28 mph    
Max Gust Speed 34 mph    
Visibility 10 miles    
Events      
Averages and records for this station are not official NWS values.
T = Trace of Precipitation, MM = Missing Value Source: NWS Daily Summary

Daily Weather History Graph

Daily Weather History Graph

Search for Another Location

Airport or City:

Trip Planner

Search our weather history database for the weather conditions in past years. The results will help you decide how hot, cold, wet, or windy it might be!

Date:

Astronomy

Apr. 11, 2013 Rise Set
Actual Time 7:00 AM EDT 7:44 PM EDT
Civil Twilight 6:37 AM EDT 8:08 PM EDT
Nautical Twilight 6:09 AM EDT 8:36 PM EDT
Astronomical Twilight 5:40 AM EDT 9:04 PM EDT
Moon 7:38 AM EDT (4/11) 9:07 PM EDT (4/11)
Length of Visible Light 13h 31m
Length of Day
12h 43m
New Moon, 2% of the Moon is Illuminated
Apr 11
New Moon
Apr 18
First Quarter
Apr 25
Full
May 2
Last Quarter
May 9
New

Hourly Weather History & Observations

Time (EDT) Temp. Heat Index Dew Point Humidity Pressure Visibility Wind Dir Wind Speed Gust Speed Precip Events Conditions
12:04 AM 75.2 °F - 71.6 °F 89% 30.03 in 10.0 mi SE 10.4 mph - N/A   Mostly Cloudy
12:12 AM 75.2 °F - 71.6 °F 89% 30.03 in 10.0 mi SE 13.8 mph - N/A   Overcast
12:25 AM 75.2 °F - 69.8 °F 83% 30.03 in 10.0 mi SE 9.2 mph - N/A   Mostly Cloudy
12:46 AM 75.2 °F - 69.8 °F 83% 30.03 in 10.0 mi SE 11.5 mph - N/A   Mostly Cloudy
12:53 AM 75.0 °F - 70.0 °F 84% 30.02 in 10.0 mi SSE 12.7 mph - N/A   Mostly Cloudy
1:43 AM 75.2 °F - 69.8 °F 83% 30.01 in 10.0 mi SE 11.5 mph - N/A   Scattered Clouds
1:53 AM 75.0 °F - 70.0 °F 84% 30.00 in 10.0 mi SE 12.7 mph - N/A   Partly Cloudy
2:08 AM 75.2 °F - 69.8 °F 83% 29.99 in 10.0 mi SE 16.1 mph - N/A   Mostly Cloudy
2:32 AM 75.2 °F - 69.8 °F 83% 29.99 in 10.0 mi SE 13.8 mph 21.9 mph N/A   Scattered Clouds
2:46 AM 75.2 °F - 69.8 °F 83% 29.98 in 10.0 mi SE 12.7 mph - N/A   Mostly Cloudy
2:53 AM 75.0 °F - 70.0 °F 84% 29.98 in 10.0 mi SSE 12.7 mph - N/A   Mostly Cloudy
3:53 AM 75.0 °F - 70.0 °F 84% 29.98 in 10.0 mi SSE 13.8 mph - N/A   Overcast
4:53 AM 75.0 °F - 69.1 °F 82% 29.97 in 10.0 mi SE 12.7 mph - N/A   Mostly Cloudy
5:53 AM 75.0 °F - 70.0 °F 84% 29.98 in 9.0 mi SE 12.7 mph - N/A   Overcast
6:53 AM 73.9 °F - 69.1 °F 85% 29.99 in 9.0 mi SE 9.2 mph - N/A   Scattered Clouds
7:53 AM 75.9 °F - 69.1 °F 79% 30.00 in 9.0 mi SE 15.0 mph - N/A   Scattered Clouds
8:53 AM 78.1 °F - 69.1 °F 74% 30.01 in 10.0 mi SE 16.1 mph - N/A   Scattered Clouds
9:53 AM 80.1 °F 82.7 °F 68.0 °F 67% 30.01 in 9.0 mi SSE 19.6 mph 25.3 mph N/A   Scattered Clouds
10:21 AM 80.6 °F 83.2 °F 68.0 °F 65% 30.02 in 10.0 mi SE 19.6 mph 26.5 mph N/A   Mostly Cloudy
10:53 AM 80.1 °F 82.7 °F 68.0 °F 67% 30.02 in 9.0 mi SE 21.9 mph 29.9 mph N/A   Overcast
11:01 AM 80.6 °F 83.2 °F 68.0 °F 65% 30.03 in 10.0 mi SE 23.0 mph - N/A   Overcast
11:18 AM 80.6 °F 83.2 °F 68.0 °F 65% 30.02 in 10.0 mi SE 23.0 mph 28.8 mph N/A   Overcast
11:53 AM 82.9 °F 86.5 °F 69.1 °F 63% 30.01 in 10.0 mi SE 26.5 mph 32.2 mph N/A   Mostly Cloudy
12:18 PM 82.4 °F 86.3 °F 69.8 °F 66% 30.01 in 10.0 mi SSE 24.2 mph 31.1 mph N/A   Mostly Cloudy
12:53 PM 82.4 °F 86.3 °F 69.8 °F 66% 30.00 in 10.0 mi SE 21.9 mph 31.1 mph N/A   Scattered Clouds
1:53 PM 82.9 °F 85.8 °F 68.0 °F 60% 29.97 in 10.0 mi SE 21.9 mph 32.2 mph N/A   Scattered Clouds
2:53 PM 82.9 °F 85.8 °F 68.0 °F 60% 29.95 in 10.0 mi SE 27.6 mph 34.5 mph N/A   Clear
3:53 PM 82.9 °F 86.5 °F 69.1 °F 63% 29.92 in 10.0 mi SE 25.3 mph 32.2 mph N/A   Partly Cloudy
4:53 PM 82.0 °F 85.5 °F 69.1 °F 65% 29.91 in 10.0 mi SSE 21.9 mph 28.8 mph N/A   Clear
5:53 PM 81.0 °F 84.1 °F 69.1 °F 67% 29.90 in 10.0 mi SE 21.9 mph 33.4 mph N/A   Clear
6:53 PM 78.1 °F - 69.1 °F 74% 29.90 in 10.0 mi SSE 18.4 mph 27.6 mph N/A   Clear
7:53 PM 77.0 °F - 70.0 °F 79% 29.90 in 10.0 mi SSE 15.0 mph 25.3 mph N/A   Partly Cloudy
8:53 PM 77.0 °F - 70.0 °F 79% 29.91 in 10.0 mi SSE 12.7 mph - N/A   Partly Cloudy
9:53 PM 77.0 °F - 70.0 °F 79% 29.90 in 10.0 mi SSE 15.0 mph - N/A   Clear
10:45 PM 77.0 °F - 71.6 °F 83% 29.89 in 10.0 mi SSE 18.4 mph 23.0 mph N/A   Mostly Cloudy
10:53 PM 77.0 °F - 71.1 °F 82% 29.89 in 10.0 mi SSE 16.1 mph 25.3 mph N/A   Mostly Cloudy
11:15 PM 77.0 °F - 71.6 °F 83% 29.89 in 10.0 mi SSE 17.3 mph - N/A   Scattered Clouds
11:27 PM 77.0 °F - 71.6 °F 83% 29.89 in 10.0 mi SSE 19.6 mph 24.2 mph N/A   Mostly Cloudy
11:53 PM 77.0 °F - 71.1 °F 82% 29.90 in 10.0 mi SSE 13.8 mph 21.9 mph N/A   Mostly Cloudy